Location: Praha
(50.0830°N, 14.4670°E)
Time: 20:12:57
(UTC+02:00)

ISS - Pass Details

Date: 25 May 2021
Orbit: 417 x 422 km, 51.6° (Epoch: 16 June)

Event Time Altitude Azimuth Distance (km) Brightness Sun altitude
Rises 22:12:06 0° 285° (WNW) 2,367 1.0 -9.8°
Reaches altitude 10° 22:14:12 10° 285° (WNW) 1,503 -0.1 -10.0°
Maximum altitude 22:17:34 88° 12° (NNE) 425 -3.8 -10.4°
Enters shadow 22:20:44 11° 106° (ESE) 1,415 -1.6 -10.7°
